Regional Weather Roundup
Issued by NWS

Home | Current Version | Previous Version | Graphics & Text | Print | Product List | Glossary On
Versions: 1 2 3 4 5 6 7 8 9 10 11 12 13 14 15 16 17 18 19 20 21 22 23 24 25 26 27 28 29 30 31 32 33 34 35 36 37 38 39 40 41 42 43 44 45 46 47 48 49 50
645
ASUS43 KMKX 231300
RWRWI

WISCONSIN REGIONAL WEATHER ROUNDUP
NATIONAL WEATHER SERVICE MILWAUKEE/SULLIVAN WI
800 AM CDT FRI JUN 23 2017

NOTE: "FAIR" INDICATES FEW OR NO CLOUDS BELOW 12,000 FEET WITH NO
SIGNIFICANT WEATHER AND/OR OBSTRUCTIONS TO VISIBILITY.

WIZ001-002-006>008-014>016-023>028-231400-
NORTHWEST WISCONSIN

CITY           SKY/WX    TMP DP  RH WIND       PRES   REMARKS
SUPERIOR ARPT  NOT AVBL
ASHLAND        SUNNY     62  50  64 W9        29.66R
HAYWARD        SUNNY     60  49  66 VRB6      29.69S
SIREN          SUNNY     59  49  69 W7        29.71R
CUMBERLAND     SUNNY     59  50  72 NW7       29.72R
RICE LAKE      SUNNY     61  52  72 W6        29.73R
CHETEK         SUNNY     60  54  82 NW7       29.71S
LADYSMITH      SUNNY     59  55  88 W5        29.72R
EAU CLAIRE     NOT AVBL
MENOMONIE      SUNNY     63  56  78 W8        29.72F
NEW RICHMOND   SUNNY     61  50  68 NW9       29.74S
OSCEOLA        SUNNY     61  49  66 W10       29.76S
$$

WIZ003>005-009-010-017-018-231400-
NORTH CENTRAL WISCONSIN

CITY           SKY/WX    TMP DP  RH WIND       PRES   REMARKS
MANITOWISH WTR SUNNY     57  56  95 W8        29.67S
ARBOR VITAE    SUNNY     60  56  86 W6        29.67S
WOODRUFF       SUNNY     60  56  86 W6        29.67S
RHINELANDER    SUNNY     61  58  90 W7        29.68S
EAGLE RIVER    SUNNY     57  57 100 W7        29.66F
LAND O LAKES   SUNNY     61  55  80 W7        29.68S
PHILLIPS       SUNNY     59  55  85 W3        29.68S
TOMAHAWK       NOT AVBL
MEDFORD        SUNNY     59  56  89 SW5       29.70S
MERRILL        SUNNY     62  58  90 W6        29.70R
$$

WIZ029-030-035-036-043>047-231400-
CENTRAL WISCONSIN

CITY           SKY/WX    TMP DP  RH WIND       PRES   REMARKS
WAUSAU         SUNNY     62  59  90 SW3       29.68S
MOSINEE        MOSUNNY   63  63 100 W7        29.71S
MARSHFIELD     SUNNY     63  59  87 W9        29.70S
STEVENS POINT  SUNNY     62  60  93 W5        29.70S
WAUPACA        SUNNY     66  65  99 W7        29.69S
WAUTOMA        CLOUDY    65  62  90 W9        29.71R
WISC RAPIDS    SUNNY     65  62  90 W6        29.72R
CAMP DOUGLAS   NOT AVBL
$$

WIZ011>013-019>022-031-037>040-048>050-231400-
NORTHEAST WISCONSIN

CITY           SKY/WX    TMP DP  RH WIND       PRES   REMARKS
ANTIGO         SUNNY     60  58  96 CALM      29.69F
SHAWANO        SUNNY     65  62  87 W7        29.66F
OCONTO         CLOUDY    64  61  90 W3        29.64S
STURGEON BAY     N/A     65  61  87 NW7         N/A
GREEN BAY      CLOUDY    67  64  90 NW7       29.66F
MANITOWOC      NOT AVBL
APPLETON       MOSUNNY   64  63  94 W9        29.66F
CLINTONVILLE   SUNNY     64  61  88 W7        29.67F
OSHKOSH        MOSUNNY   66  62  87 W8        29.68S
$$

WIZ032>034-041-042-053>061-231400-
SOUTHWEST WISCONSIN

CITY           SKY/WX    TMP DP  RH WIND       PRES   REMARKS
LA CROSSE      SUNNY     67  60  78 SW5       29.73S
SPARTA         FOG       60  60 100 SW3       29.74S VSB 3/4
VIROQUA        MOSUNNY   62  62 100 W5        29.75S
BOSCOBEL       FOG       64  64 100 SW3       29.75R VSB 1/4
PRAIRIE DU CHI PTSUNNY   67  64  90 W5        29.76R
PLATTEVILLE    CLOUDY    64  64  99 NW6       29.75R
$$

WIZ056-057-062-063-064-067-068-231400-
SOUTH CENTRAL WISCONSIN

CITY           SKY/WX    TMP DP  RH WIND       PRES   REMARKS
REEDSBURG      MOSUNNY   63  63 100 CALM      29.73R
BARABOO/DELLS  MOSUNNY   64  62  96 W6        29.73R
LONE ROCK      NOT AVBL
MINERAL POINT  MOSUNNY   63  63 100 NW5       29.75R
MADISON        CLOUDY    66  63  90 W5        29.71R
MIDDLETON      CLOUDY    65  63  90 CALM      29.72S
WATERTOWN      MOSUNNY   64  64 100 W3        29.70R
MONROE         CLOUDY    64  61  88 N7        29.73R
JANESVILLE     PTSUNNY   64  64 100 NW6       29.70R
$$

WIZ051-052-058>065-066-070>072-231400-
SOUTHEAST WISCONSIN

CITY           SKY/WX    TMP DP  RH WIND       PRES   REMARKS
MILWAUKEE      CLOUDY    68  62  81 NW8       29.68R
WAUKESHA       SUNNY     63  61  94 W8        29.74R
MILWAUKEE/TIMM SUNNY     64  59  82 NW5       29.68R
RACINE         CLOUDY    67  64  90 W7        29.70R
KENOSHA        CLOUDY    67  64  90 NW6       29.69R
FOND DU LAC    CLOUDY    67  62  84 NW8       29.68F
SHEBOYGAN      CLOUDY    67  64  90 NW8       29.66S
WEST BEND      CLOUDY    63  63 100 NW8       29.68R
JUNEAU         CLOUDY    64  62  94 CALM      29.70S
$$

LSZ147-162-231400-
LAKE SUPERIOR

STATION/POSITION TIME  TEMP    WIND        PRES    WAVE
                       AIR SEA DIR/SP/G            HT/PER
                 (UTC) (F)     (DEG/KT/KT) (MB)    (FT/S)
W MID LAKE BUOY  1150   45 39  250/ 10/ 12 1002.2R   1/ 3
DEVILS ISLAND    1200   55     240/ 16/ 18 1003.1R
SAXON HARBOR     1240   63     250/  5/ 10 1003.7R
$$

LMZ867-665-643>646-231400-
LAKE MICHIGAN

STATION/POSITION TIME  TEMP    WIND        PRES    WAVE
                       AIR SEA DIR/SP/G            HT/PER
                 (UTC) (F)     (DEG/KT/KT) (MB)    (FT/S)
CHAMBERS ISLAND  1240   65     240/  4/  7 1003.4F
S GREEN BAY BUOY 1230   65     280/ 10/ 10 1003.9F
N MID LAKE BUOY  1150   59 56  270/  6/  8 1003.2F   1/ 5
NORTHPORT PIER   1240   64     300/  7/ 10 1003.4S
KEWAUNEE LAKESHO 1230   65     290/  6/  9 1003.5F
SHEBOYGAN LAKESH 1200   66     300/ 12/ 14 1003.7S
PORT WASHINGTON  1230   67     300/  6/ 10 1005.1S
ATWATER BUOY     1109   62 59  250/  2/  4 1005.0F
MILWAUKEE LAKESH 1230   66     300/  5/  6   N/A
S MID LAKE BUOY  1150   62 61  340/ 10/ 12 1004.4R   1/ 4
KENOSHA   LAKESH 1200   62      10/  2/  3 1004.4
$$

TC  - TEMPERATURE IN CELSIUS
VSB - VISIBILITY IN STATUTE MILES
WCI - WIND CHILL INDEX
HX  - HEAT INDEX





USA.gov is the U.S. government's official web portal to all federal, state and local government web resources and services.